Regional Weather Roundup
Issued by NWS

Home | Current Version | Previous Version | Graphics & Text | Print | Product List | Glossary On
Versions: 1 2 3 4 5 6 7 8 9 10 11 12 13 14 15 16 17 18 19 20 21 22 23 24 25 26 27 28 29 30 31 32 33 34 35 36 37 38 39 40 41 42 43 44 45 46 47 48 49 50
000
ASUS43 KLOT 212308
RWRIL

ILLINOIS REGIONAL WEATHER ROUNDUP
NATIONAL WEATHER SERVICE CHICAGO/ROMEOVILLE IL
500 PM CST SAT JAN 21 2017

NOTE: "FAIR" INDICATES FEW OR NO CLOUDS BELOW 12,000 FEET WITH NO
SIGNIFICANT WEATHER AND/OR OBSTRUCTIONS TO VISIBILITY.

* THESE STATIONS ARE NOT UNDER NWS QUALITY CONTROL. THEY ALSO MAY NOT
  REPORT WEATHER SUCH AS PRECIPITATION OR FOG.

ILZ001-002-007-009-015-016-024-220000-
NORTHWEST ILLINOIS

CITY           SKY/WX    TMP DP  RH WIND       PRES   REMARKS
MOLINE         CLOUDY    46  42  86 W12       29.52R
STERLING*      CLOUDY    44  43  96 NW5       29.53R FOG
SAVANNA*       CLOUDY    44  42  93 SW5       29.52R FOG
$$

ILZ003-004-008-010-011-017-018-220000-
NORTH CENTRAL ILLINOIS

CITY           SKY/WX    TMP DP  RH WIND       PRES   REMARKS
ROCKFORD       MOCLDY    45  42  89 W8        29.52R FOG
FREEPORT*      CLOUDY    42  41  97 SW5       29.54R FOG
ROCHELLE*      MOCLDY    46  44  93 SW7       29.52R
DE KALB*       CLEAR     48  44  85 SW7       29.51R
$$

ILZ005-006-012>014-019>023-220000-
NORTHEAST ILLINOIS

CITY           SKY/WX    TMP DP  RH WIND       PRES   REMARKS
CHICAGO-OHARE  PTCLDY    54  43  66 SW10      29.50R
CHICAGO-MIDWAY PTCLDY    56  42  59 SW9       29.51R
AURORA         CLEAR     52  44  74 SW6       29.51R
LANSING*       PTCLDY    55  50  82 SW7       29.52R
JOLIET*        CLEAR     56  45  67 CALM      29.52R
WAUKEGAN       CLEAR     50  42  74 SW10      29.49R
DUPAGE AIRPORT CLEAR     50  41  71 SW7       29.50R
KANKAKEE*      MOCLDY    55  49  81 W3        29.53S
WHEELING       CLEAR     54  42  64 SW8       29.51R
MORRIS*        CLEAR     53  44  71 CALM      29.51R
ROMEOVILLE*    CLEAR     52  47  81 SW7       29.52R
NORTHERLY ISL    N/A     57  44  62 S7          N/A
$$

LMZ740>746-220000-
SOUTHERN LAKE MICHIGAN

STATION/POSITION SKY/WX   TEMP    WIND        PRES    VSBY  WAVE
                          AIR SEA DIR/SP/G                  HT/PER
                          (F)     (DEG/KT/KT) (MB)    (MI)  (FT/S)
HARRISON CRIB              59     220/ 14/ 16   N/A
BURNHAM HARBOR             56     220/  6/ 12   N/A
CALUMET HARBOR             57     200/  8/ 11  998.8
BURNS HARBOR               57     230/  9/ 11 1000.3R
MICHIGAN CITY              59     190/ 10/ 11   N/A
$$

ILZ025>027-034>036-040-047-049-050-058-095>099-220000-
WEST-CENTRAL ILLINOIS

CITY           SKY/WX    TMP DP  RH WIND       PRES   REMARKS
QUINCY         CLEAR     52  43  71 SW7       29.52R
GALESBURG*     PTCLDY    50  45  83 SW6       29.52R
MACOMB*        PTCLDY    50  46  85 W7        29.54R
JACKSONVILLE*  CLEAR     55  42  62 W5        29.52R
PITTSFIELD*    PTCLDY    58  41  54 W3        29.53R
$$

ILZ028>032-037-038-041>044-048-051>054-059>061-220000-
CENTRAL ILLINOIS

CITY           SKY/WX    TMP DP  RH WIND       PRES   REMARKS
PONTIAC        CLEAR     54  46  75 SW7       29.53R
BLOOMINGTON    CLEAR     55  44  66 W6        29.53R
DECATUR        CLEAR     57  49  74 SW6       29.53R
PEORIA         CLEAR     54  43  66 W7        29.52R
LACON*         CLEAR     54  44  69 W5        29.51R
LINCOLN*       CLEAR     58  46  62 CALM      29.52R
SPRINGFIELD    CLEAR     58  47  66 W6        29.52R
TAYLORVILLE    PTCLDY    58  51  77 SW3       29.52S
$$

ILZ033-039-045-046-055>057-062-063-220000-
EAST-CENTRAL ILLINOIS

CITY           SKY/WX    TMP DP  RH WIND       PRES   REMARKS
CHAMPAIGN      CLEAR     56  49  77 SW8       29.53R
RANTOUL*       CLEAR     57  51  80 SW3       29.53R
MATTOON        PTCLDY    60  48  64 MISG      29.53R
PARIS*         CLEAR     56  53  89 S8        29.55S
$$

ILZ079-100>102-220000-
SOUTHWEST ILLINOIS

CITY           SKY/WX    TMP DP  RH WIND       PRES   REMARKS
ALTON          PTCLDY    61  45  55 SW6       29.52R
BELLEVILLE     PTCLDY    61  49  65 CALM      29.50R
CAHOKIA*       CLEAR     65  43  44 S5        29.50R
SPARTA*        MOCLDY    64  53  67 S8        29.54R
$$

ILZ064>066-069>071-074>076-080>082-084>086-088>090-092>094-220000-
SOUTH-CENTRAL ILLINOIS

CITY           SKY/WX    TMP DP  RH WIND       PRES   REMARKS
CARBONDALE     CLOUDY    62  54  74 S9        29.55R
CAIRO*         CLOUDY    64  52  66 S3        29.56R
EFFINGHAM*     CLEAR     62  53  73 S3        29.55R
MARION         MOCLDY    63  54  72 S6        29.56R
MT. VERNON     PTCLDY    61  53  75 S8        29.55R
CENTRALIA*     PTCLDY    63  56  79 S8        29.53R
SALEM*         PTCLDY    65  54  65 S10       29.54R
METROPOLIS*    CLOUDY    65  51  58 CALM      29.56S
$$

ILZ067-068-072-073-078-083-087-091-220000-
SOUTHEAST ILLINOIS

CITY           SKY/WX    TMP DP  RH WIND       PRES   REMARKS
LAWRENCEVILLE  PTCLDY    60  55  83 S6        29.56S
FLORA*         CLEAR     61  54  77 S8        29.55R
FAIRFIELD*     PTCLDY    63  53  70 S5        29.54R
HARRISBURG*    CLOUDY    64  52  66 SW5       29.56R
ROBINSON*      PTCLDY    61  53  75 S7        29.56S
CARMI*         PTCLDY    60  53  80 S5        29.56R
$$

ABBREVIATIONS USED IN REMARKS
   TC - TEMPERATURE IN CELSIUS
  WCI - WIND CHILL INDEX
   HX - HEAT INDEX
  VSB - VISIBILITY
$$





USA.gov is the U.S. government's official web portal to all federal, state and local government web resources and services.